Precipitable_Water
1.01 1.00 0.98 1.00 1.03 1.05 1.06 1.09 1.15 1.15 1.18 1.23 1.23 1.22 1.17 1.17 1.25 1.29 1.32 1.35 1.37 1.40 1.44 1.46 1.46 1.48 1.51 1.54 1.55 1.55 1.57 1.60 1.62 1.67 1.67 1.66 1.64 1.63 1.58 1.57 1.55 1.47
1.00 0.98 0.98 0.99 1.03 1.07 1.07 1.08 1.09 1.10 1.12 1.15 1.20 1.25 1.27 1.23 1.22 1.27 1.29 1.30 1.33 1.34 1.39 1.42 1.43 1.42 1.43 1.47 1.51 1.51 1.50 1.54 1.55 1.68 1.65 1.63 1.63 1.62 1.59 1.61 1.59 1.61
1.00 0.99 0.97 0.93 0.94 0.99 1.02 1.06 1.06 1.07 1.07 1.10 1.16 1.22 1.24 1.26 1.23 1.25 1.30 1.31 1.30 1.31 1.34 1.38 1.40 1.40 1.41 1.43 1.50 1.50 1.49 1.49 1.49 1.59 1.61 1.60 1.63 1.59 1.60 1.63 1.63 1.65
1.00 0.98 0.96 0.93 0.93 0.93 1.00 1.04 1.05 1.05 1.06 1.06 1.09 1.14 1.17 1.21 1.24 1.25 1.26 1.30 1.29 1.28 1.31 1.35 1.36 1.38 1.39 1.41 1.43 1.43 1.44 1.45 1.49 1.53 1.52 1.56 1.60 1.60 1.58 1.62 1.64 1.65
0.99 0.96 0.97 0.97 0.97 0.96 0.98 0.99 1.00 1.02 1.03 1.02 1.06 1.11 1.13 1.14 1.16 1.20 1.24 1.26 1.27 1.25 1.27 1.29 1.33 1.35 1.38 1.40 1.40 1.35 1.37 1.37 1.43 1.45 1.43 1.42 1.50 1.53 1.54 1.56 1.58 1.58
1.07 1.02 0.98 0.97 0.99 0.97 0.94 0.92 0.93 0.95 0.97 0.99 1.01 1.07 1.08 1.10 1.10 1.10 1.15 1.19 1.22 1.21 1.22 1.26 1.27 1.30 1.33 1.34 1.36 1.33 1.32 1.30 1.34 1.38 1.35 1.34 1.38 1.46 1.48 1.47 1.48 1.50
1.09 1.06 1.01 0.99 0.99 1.00 0.96 0.93 0.93 0.93 0.91 0.92 0.98 1.01 1.04 1.05 1.06 1.05 1.04 1.07 1.11 1.14 1.15 1.20 1.24 1.26 1.29 1.29 1.28 1.27 1.29 1.29 1.32 1.33 1.30 1.32 1.34 1.35 1.42 1.41 1.38 1.40
1.16 1.11 1.07 1.02 0.98 0.99 0.96 0.95 0.95 0.94 0.92 0.94 0.92 0.94 0.98 0.98 0.98 1.01 1.02 1.01 1.01 1.05 1.08 1.12 1.19 1.26 1.31 1.29 1.24 1.23 1.24 1.29 1.28 1.28 1.26 1.27 1.30 1.27 1.30 1.35 1.35 1.32
1.24 1.18 1.12 1.05 0.98 0.98 0.97 0.95 0.95 0.96 0.98 0.95 0.93 0.92 0.95 0.94 0.93 0.95 0.97 0.99 0.97 0.97 1.00 1.04 1.08 1.14 1.23 1.25 1.23 1.21 1.20 1.23 1.26 1.26 1.23 1.22 1.20 1.19 1.22 1.27 1.27 1.27
1.29 1.25 1.18 1.10 1.00 0.96 0.95 0.97 0.96 0.96 0.99 0.97 0.95 0.96 0.93 0.94 0.94 0.93 0.93 0.93 0.92 0.93 0.95 0.96 1.01 1.06 1.12 1.17 1.17 1.17 1.17 1.17 1.21 1.23 1.24 1.23 1.19 1.17 1.19 1.21 1.20 1.22
1.31 1.29 1.23 1.16 1.07 0.99 0.94 0.96 0.99 0.99 0.99 0.97 0.96 0.94 0.94 0.94 0.94 0.95 0.93 0.91 0.87 0.87 0.89 0.91 0.93 0.98 1.01 1.06 1.11 1.15 1.15 1.15 1.16 1.17 1.17 1.17 1.17 1.16 1.17 1.19 1.19 1.18
1.36 1.32 1.27 1.21 1.16 1.09 1.00 0.96 0.97 0.99 1.00 0.99 0.97 0.93 0.92 0.92 0.91 0.92 0.90 0.87 0.85 0.83 0.82 0.83 0.87 0.92 0.94 0.96 1.01 1.08 1.14 1.16 1.17 1.16 1.15 1.14 1.13 1.13 1.13 1.16 1.15 1.15
1.41 1.37 1.32 1.27 1.23 1.19 1.13 1.06 0.99 0.96 0.96 0.97 1.00 0.97 0.91 0.88 0.87 0.87 0.89 0.87 0.84 0.82 0.79 0.78 0.81 0.87 0.90 0.92 0.94 1.00 1.06 1.10 1.11 1.12 1.12 1.12 1.12 1.12 1.13 1.14 1.14 1.13
1.44 1.44 1.42 1.37 1.32 1.28 1.24 1.18 1.11 1.04 0.99 0.97 0.99 0.98 0.96 0.91 0.85 0.82 0.81 0.83 0.82 0.81 0.80 0.80 0.80 0.84 0.88 0.91 0.93 0.95 0.98 1.02 1.05 1.05 1.04 1.05 1.07 1.10 1.13 1.13 1.12 1.11
1.49 1.50 1.50 1.47 1.45 1.39 1.31 1.24 1.19 1.15 1.10 1.05 1.01 0.98 0.98 0.98 0.96 0.91 0.86 0.82 0.81 0.81 0.81 0.82 0.81 0.81 0.84 0.87 0.89 0.92 0.95 0.96 0.99 1.00 0.99 0.98 0.99 1.03 1.07 1.10 1.11 1.11
1.53 1.52 1.51 1.50 1.48 1.43 1.38 1.35 1.29 1.23 1.17 1.12 1.08 1.04 1.00 0.99 0.99 0.98 0.95 0.90 0.86 0.83 0.82 0.83 0.82 0.82 0.82 0.82 0.85 0.87 0.90 0.93 0.95 0.97 0.98 0.98 0.97 0.97 0.99 1.03 1.05 1.08
1.56 1.53 1.53 1.49 1.47 1.45 1.44 1.41 1.37 1.32 1.26 1.19 1.14 1.10 1.06 1.03 1.00 0.97 0.96 0.95 0.93 0.89 0.86 0.84 0.84 0.84 0.82 0.81 0.81 0.84 0.88 0.90 0.91 0.92 0.95 0.97 0.97 0.95 0.92 0.94 0.99 1.04
1.58 1.55 1.52 1.49 1.49 1.46 1.44 1.43 1.42 1.40 1.34 1.28 1.22 1.16 1.12 1.09 1.04 1.00 0.98 0.97 0.96 0.95 0.92 0.89 0.87 0.86 0.85 0.84 0.83 0.82 0.84 0.87 0.89 0.90 0.93 0.95 0.96 0.96 0.96 0.96 0.97 1.00
1.67 1.61 1.54 1.50 1.48 1.47 1.47 1.47 1.45 1.41 1.37 1.33 1.27 1.24 1.23 1.17 1.09 1.05 1.01 1.00 0.98 0.95 0.93 0.93 0.91 0.89 0.88 0.87 0.87 0.85 0.85 0.86 0.88 0.90 0.91 0.93 0.95 0.97 0.97 0.97 0.99 1.00
1.78 1.70 1.60 1.54 1.52 1.51 1.51 1.49 1.46 1.41 1.40 1.40 1.37 1.35 1.29 1.21 1.17 1.12 1.08 1.04 1.01 0.97 0.94 0.94 0.93 0.93 0.91 0.90 0.90 0.90 0.91 0.91 0.92 0.93 0.94 0.95 0.97 0.99 1.00 1.00 1.01 1.00
1.85 1.76 1.67 1.61 1.58 1.56 1.55 1.53 1.50 1.48 1.47 1.47 1.45 1.38 1.31 1.24 1.19 1.15 1.12 1.09 1.05 1.02 0.98 0.95 0.95 0.95 0.95 0.94 0.93 0.93 0.95 0.98 0.99 1.00 0.99 0.99 1.01 1.03 1.04 1.04 1.05 1.06
1.93 1.85 1.77 1.71 1.65 1.61 1.57 1.52 1.52 1.52 1.51 1.54 1.53 1.50 1.46 1.39 1.33 1.27 1.19 1.14 1.10 1.07 1.03 0.97 0.97 0.99 0.99 0.98 0.97 0.96 0.98 1.01 1.02 1.01 1.01 1.01 1.01 1.04 1.06 1.08 1.09 1.09
1.99 1.92 1.86 1.81 1.76 1.70 1.64 1.60 1.57 1.55 1.56 1.62 1.58 1.56 1.50 1.44 1.36 1.29 1.25 1.20 1.16 1.12 1.06 1.01 1.00 1.02 1.02 1.01 1.01 1.01 1.03 1.04 1.04 1.04 1.03 1.02 1.01 1.04 1.08 1.10 1.10 1.10
2.04 1.99 1.94 1.93 1.90 1.80 1.73 1.71 1.72 1.71 1.67 1.68 1.59 1.56 1.53 1.49 1.45 1.40 1.35 1.28 1.20 1.14 1.11 1.05 1.04 1.06 1.07 1.05 1.04 1.05 1.07 1.06 1.07 1.07 1.05 1.04 1.03 1.07 1.10 1.11 1.11 1.12
2.08 2.04 2.00 1.99 1.97 1.92 1.86 1.80 1.78 1.76 1.76 1.78 1.72 1.67 1.63 1.63 1.61 1.51 1.44 1.38 1.29 1.21 1.17 1.13 1.10 1.10 1.11 1.08 1.06 1.07 1.11 1.13 1.14 1.12 1.08 1.06 1.04 1.03 1.08 1.11 1.11 1.14
2.10 2.08 2.06 2.03 2.01 2.02 1.98 1.90 1.89 1.87 1.84 1.79 1.76 1.74 1.70 1.70 1.68 1.61 1.51 1.43 1.39 1.33 1.25 1.18 1.12 1.11 1.12 1.09 1.07 1.07 1.10 1.14 1.17 1.14 1.09 1.06 1.05 1.03 1.01 1.06 1.10 1.12
Wind_Speed
24 23 23 23 22 21 20 19 18 18 17 16 16 15 15 14 13 12 11 11 10 9 9 8 7 7 6 6 5 4 4 3 3 2 2 2 2 3 3 3 3 3
25 24 24 23 23 22 21 21 20 19 18 17 16 16 15 14 14 13 12 11 11 10 9 9 8 8 7 6 5 5 4 4 3 3 3 2 2 2 3 3 3 3
26 25 24 24 24 23 23 22 21 20 19 18 18 17 16 15 15 14 13 12 11 11 10 10 9 9 8 7 6 5 5 4 4 3 3 3 2 2 2 2 3 3
26 26 26 25 24 24 24 23 22 21 20 19 19 18 17 16 15 15 14 13 12 11 11 11 10 10 9 8 7 6 6 5 4 4 4 3 3 2 2 2 2 3
27 27 26 26 25 25 24 24 23 22 21 20 20 19 18 18 17 16 15 14 13 12 12 12 11 11 10 10 9 8 7 6 5 5 5 4 4 3 3 3 3 3
27 27 27 26 26 25 25 25 24 23 22 21 21 20 19 19 18 17 16 15 14 14 13 13 12 12 11 11 10 9 8 8 7 6 6 6 5 5 4 4 4 4
27 27 27 27 27 26 26 26 25 24 23 22 22 21 20 20 19 18 17 16 16 15 14 14 13 13 13 12 11 11 10 9 9 8 8 7 6 6 6 5 5 5
27 27 27 27 27 27 27 27 26 25 24 23 22 22 21 21 20 19 18 18 17 16 15 15 14 14 14 13 13 12 11 11 10 10 9 9 8 8 7 7 7 7
27 27 27 27 28 28 28 28 27 26 25 24 24 23 22 22 21 20 20 19 18 18 17 16 16 15 15 15 14 14 13 12 12 11 11 10 10 9 9 9 8 8
28 27 27 28 28 28 28 28 28 27 27 26 25 24 23 23 22 21 21 20 20 19 19 18 17 17 16 16 16 15 14 14 13 12 12 11 11 10 10 10 10 10
28 28 28 28 28 29 29 29 28 28 28 27 27 26 25 24 23 23 22 22 21 21 20 20 19 19 18 17 17 17 16 16 15 14 13 13 12 12 11 11 11 11
29 29 29 29 29 29 29 29 29 29 28 28 28 27 27 26 25 24 24 23 23 22 22 21 21 20 20 19 19 18 18 17 17 16 15 14 14 13 13 13 13 12
30 29 29 29 29 29 29 29 29 29 29 29 28 28 28 28 27 26 26 25 24 24 23 23 22 22 21 21 20 20 19 19 18 18 17 16 16 15 15 14 14 14
30 30 29 29 29 29 29 30 30 30 29 29 29 29 29 28 28 28 27 27 26 25 25 24 24 23 23 22 22 21 21 20 20 19 18 18 17 17 16 16 15 15
31 31 30 30 29 29 29 30 30 30 30 29 29 29 29 29 29 29 28 28 27 27 26 25 25 25 24 24 23 23 22 22 21 21 20 19 19 18 18 17 17 16
32 31 31 31 30 30 30 30 30 30 30 30 30 30 29 29 29 29 29 29 28 28 27 27 26 26 26 25 25 24 24 23 23 22 22 21 20 20 20 19 19 18
32 32 32 32 31 31 30 30 30 30 30 30 30 30 30 30 30 30 30 30 29 29 29 28 27 27 27 27 26 26 25 25 24 24 23 23 22 22 21 21 21 20
32 32 32 32 32 31 31 31 31 31 31 31 31 30 30 30 30 30 30 30 30 30 30 29 28 28 28 28 27 27 27 26 26 25 25 24 24 24 23 23 22 22
31 32 32 32 32 31 31 31 31 31 31 31 31 31 31 31 31 31 31 31 31 31 30 30 29 29 29 29 28 28 28 28 27 27 26 26 25 25 25 24 24 24
30 31 31 32 32 32 31 31 31 31 31 31 31 31 31 31 31 31 31 31 31 31 31 30 30 30 30 29 29 29 29 29 28 28 28 27 27 26 26 26 25 25
30 30 30 31 31 31 32 32 32 31 31 31 31 31 31 31 31 31 31 31 31 31 31 31 31 30 30 30 30 30 29 29 29 29 29 28 28 27 27 26 26 26
30 30 30 30 30 31 31 32 32 32 32 31 31 31 31 31 31 32 32 32 32 32 32 31 31 31 31 30 30 30 29 29 29 29 29 29 28 28 28 27 27 26
30 30 30 30 30 30 31 31 32 32 32 32 32 32 32 32 32 31 31 32 32 32 32 32 31 31 31 30 30 30 29 29 29 29 30 30 29 29 28 28 28 27
30 31 31 30 30 30 30 31 31 31 31 31 32 32 32 32 32 32 32 32 32 32 32 32 32 32 32 31 31 30 30 29 30 30 30 30 29 29 29 28 28 28
30 31 31 31 31 30 30 31 31 31 31 31 31 31 31 32 32 32 32 32 32 32 32 33 33 32 32 32 32 32 31 31 30 30 30 30 30 29 29 29 29 29
31 31 32 31 31 31 31 31 31 31 31 31 31 31 31 31 31 32 32 32 32 32 32 32 33 33 33 33 33 33 32 32 31 31 31 31 31 30 30 29 29 29
Wind_Direction
205 205 204 203 204 204 204 203 203 203 202 203 203 203 202 202 201 200 200 199 198 198 197 196 195 194 192 189 185 183 182 178 172 166 165 165 160 158 161 163 165 166
206 206 206 205 205 206 206 206 206 206 206 205 206 206 206 206 205 204 203 203 202 202 202 202 201 200 199 198 194 194 194 190 188 186 185 186 179 172 173 175 175 173
207 208 208 207 207 207 208 208 209 209 209 208 208 208 208 208 208 208 207 206 206 207 207 207 206 205 206 206 204 205 204 201 201 199 197 197 194 191 190 186 184 182
209 209 210 209 209 209 210 211 211 211 211 211 211 210 210 211 211 210 210 209 210 210 211 211 211 210 209 210 212 214 213 212 212 210 207 207 207 209 209 206 204 196
210 211 211 211 211 212 213 213 214 214 213 212 213 213 212 213 213 212 212 212 213 214 215 215 216 215 214 214 216 219 221 220 219 218 218 219 220 221 221 223 225 219
212 212 212 213 213 213 214 216 216 216 215 214 214 215 215 214 214 214 214 215 216 218 219 219 220 219 218 217 218 221 224 225 225 225 226 228 229 229 230 232 234 232
214 213 213 214 214 214 215 217 218 218 217 216 216 217 217 217 217 216 216 217 218 220 221 222 222 222 222 221 221 223 225 226 228 229 232 235 236 237 237 238 239 238
216 215 215 215 215 215 216 217 218 219 218 218 218 219 220 220 220 219 218 219 220 221 222 223 224 224 224 224 224 225 226 228 229 231 234 238 240 242 243 242 242 242
217 217 216 217 217 217 217 218 219 220 220 220 220 221 222 223 222 222 221 221 222 223 224 225 226 226 226 227 227 228 229 230 231 232 235 238 241 244 245 245 245 244
218 218 218 218 218 219 218 219 220 220 221 221 222 223 224 225 225 224 224 223 224 225 226 228 229 229 229 229 229 230 232 233 234 235 237 239 242 244 245 246 246 246
219 219 219 218 219 220 220 220 221 222 222 223 223 224 225 226 227 227 227 226 226 227 228 230 231 232 232 232 232 232 233 234 236 237 240 242 244 245 246 246 247 248
219 220 220 220 220 221 221 221 222 223 224 224 225 225 226 227 228 229 229 229 229 229 230 231 232 233 234 235 235 235 234 235 237 239 242 244 246 247 247 248 248 249
220 220 221 221 222 222 222 222 223 224 225 226 227 227 228 228 229 230 231 231 232 232 232 233 233 234 235 236 237 237 237 237 238 240 242 244 246 248 248 249 249 249
221 221 222 222 223 224 224 224 224 225 226 227 228 228 229 230 230 231 232 233 234 234 234 235 235 235 236 236 237 238 239 240 240 242 243 245 246 247 249 250 250 250
221 222 223 223 224 225 225 225 226 226 227 228 228 229 230 231 231 232 233 234 235 235 235 236 236 237 237 237 238 238 239 240 241 243 244 246 247 248 249 250 251 252
221 223 224 224 225 225 226 226 227 227 228 229 229 230 231 232 232 233 234 235 236 236 236 236 237 237 237 238 238 239 240 240 241 242 244 246 248 249 250 251 251 252
221 223 224 226 226 227 227 227 228 228 229 230 230 231 232 232 233 234 234 235 236 237 238 238 238 238 238 238 239 240 240 241 242 242 243 245 247 249 251 252 253 253
221 223 224 226 227 228 228 228 229 229 229 230 231 232 233 233 234 235 235 236 237 238 238 239 239 239 239 239 239 240 241 242 243 244 244 245 246 248 250 252 253 254
221 222 224 225 227 228 229 229 230 230 230 231 232 233 233 234 235 235 236 237 237 238 239 240 240 240 240 240 240 240 241 242 244 245 246 247 247 248 250 251 253 254
221 222 224 225 226 227 229 230 230 231 231 232 232 233 234 235 235 236 237 237 238 239 239 240 241 241 241 241 241 241 241 242 244 245 246 247 248 249 250 251 252 253
221 222 223 225 226 227 228 229 230 231 232 232 233 233 234 235 236 236 237 238 238 239 240 241 241 241 241 241 242 242 242 243 244 245 246 247 248 249 250 251 252 253
221 222 223 224 225 226 227 229 230 231 232 232 233 234 235 235 236 237 237 238 238 239 240 241 241 241 242 242 242 243 243 244 245 246 246 247 248 249 250 251 252 253
223 223 223 224 225 225 227 228 230 231 232 233 233 234 235 235 236 237 237 238 239 239 239 241 241 242 242 242 242 243 244 245 246 246 247 247 248 249 249 251 252 252
225 225 225 226 226 226 227 228 229 231 232 232 233 234 235 236 236 237 238 238 239 239 240 241 242 242 242 243 243 243 244 245 246 246 247 248 248 249 250 251 252 252
226 227 227 227 228 228 229 229 229 230 231 232 232 233 234 235 236 237 238 239 239 239 240 240 242 243 243 243 244 243 244 245 246 246 247 248 249 249 250 251 252 253
228 228 229 229 229 230 231 230 230 231 231 232 232 232 233 234 235 237 238 239 239 240 240 240 242 243 243 243 243 243 243 244 245 246 247 248 249 249 250 251 252 253